Weather in Dzhardzhan

Russia / Sakha (Yakutia) Republic     68°43′55″N   124°01′10″E
temp.,
°C
wind,
m/s
gust,
m/s
humid.,
%
clouds,
%
prec.,
mm/h
press.,
hPa
HPBL,
m
12 may, wed
wed1200:00−5nnw49865 0.0 1020303
03:00−6nnw48895 0.0 1019270
06:00−5n35795 0.0 1018309
09:00−2n34645 0.0 1018530
12:00+1n34545 0.0 1016807
15:00+3n34515 0.0 1016980
18:00+2nnw34535 0.0 1015925
21:00−1nnw25734 0.0 1016142
13 may, thu
thu1300:00−4nnw11935 0.0 101537
03:00−5n00957 0.0 101510
06:00−2s11755 0.0 1015119
09:00+2ssw235687 0.0 1014571
12:00+4ssw3444100 0.0 1013933
15:00+5s4541100 0.0 10121080
18:00+5s4750100 0.0 1012702
21:00+3s4116092 0.0 1012343
14 may, fri
fri1400:00+2s41264100 0.0 1011326
03:00+2s41264100 0.0 1010395
06:00+3s41065100 0.0 1010455
09:00+5s5862100 0.0 1010514
12:00+6s5865100 0.0 1009831
15:00+9s5955100 0.0 10081148
18:00+9s4859100 0.0 1007887
21:00+8s4116193 0.0 1006378
15 may, sat
sat1500:00+7sse6155449 0.0 1005576
03:00+6s6155493 0.0 1003556
06:00+6s61359100 0.0 1002705
09:00+5s71289100 0.9 1002961
12:00+7s61077100 0.1 1002964
15:00+7s41169100 0.4 1001922
18:00+10sse3965100 0.1 999527
21:00+12s6154985 0.3 998649
16 may, sun
sun1600:00+10s71745100 0.0 997740
03:00+10s71844100 0.0 996881
06:00+11s8174185 0.0 9961123
09:00+12s81441100 0.0 9961292
12:00+12s7154589 0.0 9971700
15:00+12sw5953100 0.0 9971507
18:00+8nw1177100 0.9 998386
21:00+3nw5894100 6.1 999498